Back to catalog

STARLINK-35050

AliveCommunicationsSSO
NORAD 65440·PAYLOAD·🇺🇸 United States

Launched Sep 3, 2025 from Vandenberg Space Force Base

Loading…

Next Passes (next 24 hours)

TLE

FreshSource: CelesTrak SupGP

Epoch: Sep 14, 2026, 15:02 UTC

1 65440C 25194G   26257.62687500 -.00059893  00000+0 -18594-2 0  2577
2 65440  97.2846 107.4041 0001925  88.1313 177.1218 15.33466481    14

Track STARLINK-35050 in real time with AllMySat

Download on the App Store